Starlink 6075

operational
NORAD ID: 56102 Int'l Des: 2023-046 Owner: SPXS Country: US Constellation: starlink
LEOCIRCULAR

Über Starlink 6075

Beschreibung wird geladen...

Live-Position

3D-Globus wird geladen...

Nächste Überflüge

Höhenverlauf

Altitude vs Time

uPlot chart will show altitude changes over time

Zweizeiliger Elementsatz

1 56102U 23046K 25258.66393895 -.00000860 00000-0 -48608-4 0 9996
2 56102 43.0064 29.9880 0000719 255.7714 104.3049 15.02543517135730
Epoch: 15. Sept. 2025 • Age: 18 hours

Aktueller Status

Höhe 561.7 km
Geschwindigkeit 7.59 km/s
Subsatellitenpunkt 38.43°N, 58.48°W
Startdatum 29. März 2023
Alter 2.4 years
Typ internet

Technische Details

Klassifizierung Payload
Masse 305.00 kg
Trockenmasse 290.00 kg
Gesamtmasse 305.00 kg
Länge 0.20 m
Durchmesser 2.80 m
Spannweite 9.00 m
Form Box + pan
Hersteller SPXS
Bus-Typ Starlink
Phasenstatus In Orbit
Besitzer/Staat SPXS/US

Große Konstellationen

Loading constellations...